Flag for Canada Weather past 2 weeks in Thompson, Manitoba, Canada

Now
68 °F

Passing clouds.


Feels Like: 68 °F
Forecast: 55 / 74 °F
Wind: 8 mph from Southwest

Location: Thompson

Current Time: Jul 24, 2014 at 10:48:12 PM

Latest Report: Jul 24, 2014 at 10:00 PM


Visibility: 15 mi

Pressure: 29.80 "Hg

Humidity: 64%

Dew point: 55 °F

Location of ThompsonLocation

Historic Weather in Thompson — Graph

°F

Thompson temperature yesterday

Maximum temperature yesterday: 81 °F (at 3:00 PM)
Minimum temperature yesterday: 43 °F (at 5:00 AM)
Average temperature yesterday: 65 °F

Past Weeks' High & Low Weather Summary

 TemperatureHumidityPressure
High84 °F (Jul 24, 5:00 PM)100% (Jul 9, 11:00 PM)30.31 "Hg (Jul 9, 11:00 PM)
Low39 °F (Jul 15, 5:00 AM)32% (Jul 23, 7:00 PM)29.39 "Hg (Jul 20, 2:00 PM)
Average61 °F83%29.82 "Hg
* Reported Jul 9 9:00 PM — Jul 24 9:00 PM, Thompson, Weather by CustomWeather, © 2014

Note: Actual official high and low records may vary slightly from our data, if they occured in-between our weather recording intervals... More about our weather records

Advertising

Thompson weather history for previous 24 hours

 ConditionsComfort  
Time TempWeatherWind HumidityBarometerVisibility
9:00 PM
Jul 24
75 °FPassing clouds.5 mph54%29.80 "Hg15 mi
8:00 PM79 °FPassing clouds.5 mph42%29.82 "Hg15 mi
7:00 PM81 °FPassing clouds.6 mph34%29.83 "Hg15 mi
6:00 PM82 °FPassing clouds.3 mph35%29.83 "Hg15 mi
5:00 PM84 °FScattered clouds.3 mph33%29.85 "Hg15 mi
4:00 PM82 °FPassing clouds.3 mph35%29.86 "Hg10 mi
3:00 PM82 °FPassing clouds.9 mph32%29.89 "Hg15 mi
2:00 PM82 °FPassing clouds.2 mph35%29.90 "Hg15 mi
1:00 PM81 °FPassing clouds.8 mph37%29.93 "Hg15 mi
12:00 PM79 °FPassing clouds.2 mph48%29.94 "Hg15 mi
11:00 AM75 °FSunny.3 mph57%29.96 "Hg15 mi
10:00 AM72 °FSunny.6 mph65%29.98 "Hg15 mi
9:00 AM66 °FSunny.3 mph73%29.99 "Hg15 mi
8:00 AM61 °FSunny.5 mph88%30.00 "Hg15 mi
7:00 AM54 °FSunny.No wind94%30.00 "Hg15 mi
6:00 AM48 °FPassing clouds.5 mph100%30.01 "Hg15 mi
5:00 AM50 °FPassing clouds.5 mph94%30.02 "Hg15 mi
4:00 AM52 °FPassing clouds.2 mph94%30.03 "Hg15 mi
3:00 AM54 °FPassing clouds.3 mph94%30.04 "Hg15 mi
2:00 AM52 °FPassing clouds.2 mph94%30.04 "Hg15 mi
1:00 AM52 °FPassing clouds.2 mph94%30.05 "Hg15 mi
12:00 AM55 °FPassing clouds.No wind88%30.05 "Hg15 mi
11:00 PM
Jul 23
59 °FPassing clouds.2 mph82%30.05 "Hg15 mi
10:00 PM63 °FPassing clouds.3 mph77%30.06 "Hg15 mi
Weather by CustomWeather, © 2014

See weather overviewHow to use our weather pages